FW0979 Weather Reports


time (UTC)temp
C
wind
direction
speed
KPH
gust
KPH
rain 1hr
cm
rain 24hr
cm
rain mn
cm
humidity
%
barometer
mb
20260510130011 16 302 3.2 9.7 0.00 0.00 0.00 59 1005.0
20260510124508 16 302 4.8 8.0 0.00 0.00 0.00 58 1005.1
20260510123005 16 303 3.2 9.7 0.00 0.00 0.00 57 1004.5
20260510121559 16 304 3.2 8.0 0.00 0.00 0.00 56 1004.2
20260510120056 16 360 4.8 8.0 0.00 0.00 0.00 55 1004.1
20260510114555 16 360 6.4 14.5 0.00 0.00 0.00 53 1003.9
20260510113045 17 244 6.4 16.1 0.00 0.00 0.00 53 1003.8
20260510111539 18 360 8.0 17.7 0.00 0.00 0.00 51 1003.7
20260510110036 18 221 6.4 19.3 0.00 0.00 0.00 50 1003.4
20260510104529 18 219 9.7 22.5 0.00 0.00 0.00 48 1003.2
20260510103025 18 208 8.0 20.9 0.00 0.00 0.00 45 1003.2
20260510101519 19 196 8.0 19.3 0.00 0.00 0.00 43 1003.2
20260510100017 19 205 9.7 22.5 0.00 0.00 0.00 42 1003.2
20260510094518 19 203 11.3 24.1 0.00 0.00 0.00 40 1003.0
20260510093005 20 229 9.7 19.3 0.00 0.00 0.00 38 1003.3
20260510091558 20 231 9.7 20.9 0.00 0.00 0.00 36 1003.3
20260510090053 21 203 11.3 25.7 0.00 0.00 0.00 35 1003.1
20260510084548 21 206 9.7 24.1 0.00 0.00 0.00 34 1003.0
20260510083046 21 198 14.5 24.1 0.00 0.00 0.00 33 1003.0
20260510081544 21 104 12.9 27.4 0.00 0.00 0.00 31 1002.8
20260510080037 21 209 14.5 27.4 0.00 0.00 0.00 30 1003.1
20260510074531 22 209 14.5 27.4 0.00 0.00 0.00 30 1003.4
20260510073027 22 202 14.5 29.0 0.00 0.00 0.00 29 1003.5
20260510071533 22 201 14.5 22.5 0.00 0.00 0.00 29 1003.8
20260510070016 22 212 9.7 20.9 0.00 0.00 0.00 29 1004.0
20260510064514 22 360 12.9 25.7 0.00 0.00 0.00 28 1004.0
20260510063010 22 209 12.9 25.7 0.00 0.00 0.00 28 1004.0
20260510061506 22 200 11.3 20.9 0.00 0.00 0.00 28 1004.1
20260510060001 22 360 12.9 25.7 0.00 0.00 0.00 27 1004.0
20260510054501 23 205 12.9 25.7 0.00 0.00 0.00 27 1004.0
20260510053100 23 192 11.3 20.9 0.00 0.00 0.00 26 1004.0
20260510051600 23 233 12.9 25.7 0.00 0.00 0.00 26 1004.0
20260510050101 23 217 11.3 27.4 0.00 0.00 0.00 24 1004.1
20260510044601 23 195 9.7 19.3 0.00 0.00 0.00 23 1004.1
20260510043059 23 203 8.0 16.1 0.00 0.00 0.00 20 1004.1
20260510041557 24 205 6.4 12.9 0.00 0.00 0.00 19 1003.9
20260510040101 25 200 6.4 12.9 0.00 0.00 0.00 18 1003.8
20260510034604 25 201 8.0 16.1 0.00 0.00 0.00 18 1003.7
20260510033114 25 178 8.0 16.1 0.00 0.00 0.00 17 1003.5
20260510031559 26 198 8.0 16.1 0.00 0.00 0.00 17 1003.3
20260510030054 26 181 8.0 14.5 0.00 0.00 0.00 16 1003.2
20260510024558 27 190 6.4 14.5 0.00 0.00 0.00 16 1003.0
20260510023053 28 179 6.4 11.3 0.00 0.00 0.00 15 1002.8
20260510021554 28 202 4.8 9.7 0.00 0.00 0.00 14 1002.5
20260510020053 30 207 4.8 11.3 0.00 0.00 0.00 13 1002.4
20260510014553 30 212 4.8 9.7 0.00 0.00 0.00 13 1002.2
20260510013054 31 214 4.8 12.9 0.00 0.00 0.00 12 1002.0
20260510011556 32 360 6.4 12.9 0.00 0.00 0.00 11 1002.0
20260510010051 32 229 8.0 12.9 0.00 0.00 0.00 11 1001.9
20260510004552 32 257 6.4 16.1 0.00 0.00 0.00 10 1002.0
20260510003109 32 264 8.0 20.9 0.00 0.00 0.00 10 1001.9
20260510001549 32 276 12.9 24.1 0.00 0.00 0.00 10 1002.1
20260510000048 33 277 14.5 22.5 0.00 0.00 0.00 10 1002.0
20260509234600 33 360 9.7 19.3 0.00 0.00 0.00 10 1002.1
20260509233045 33 250 9.7 20.9 0.00 0.00 0.00 10 1002.3
20260509231552 33 268 11.3 29.0 0.00 0.00 0.00 10 1002.4
20260509230050 33 283 9.7 22.5 0.00 0.00 0.00 9 1002.6
20260509224544 33 229 9.7 20.9 0.00 0.00 0.00 10 1002.7
20260509223042 33 360 11.3 20.9 0.00 0.00 0.00 10 1003.0
20260509221540 33 238 11.3 20.9 0.00 0.00 0.00 10 1002.9
20260509220041 33 317 12.9 22.5 0.00 0.00 0.00 10 1003.4
20260509214538 33 295 9.7 16.1 0.00 0.00 0.00 11 1003.7
20260509213040 33 196 9.7 22.5 0.00 0.00 0.00 10 1003.9
20260509211537 33 360 14.5 30.6 0.00 0.00 0.00 11 1004.1
20260509210030 33 229 12.9 30.6 0.00 0.00 0.00 11 1004.4
20260509204529 33 238 14.5 27.4 0.00 0.00 0.00 12 1004.6
20260509203033 32 234 14.5 32.2 0.00 0.00 0.00 12 1005.0
20260509201522 32 283 14.5 30.6 0.00 0.00 0.00 13 1005.2
20260509200023 32 360 16.1 32.2 0.00 0.00 0.00 13 1005.4
20260509194523 32 274 16.1 30.6 0.00 0.00 0.00 13 1005.6
20260509193015 31 250 16.1 30.6 0.00 0.00 0.00 13 1005.7
20260509191515 32 257 14.5 35.4 0.00 0.00 0.00 14 1005.9
20260509190017 31 200 16.1 27.4 0.00 0.00 0.00 14 1006.0
20260509184510 31 230 19.3 33.8 0.00 0.00 0.00 15 1006.2
20260509183019 31 229 14.5 30.6 0.00 0.00 0.00 15 1006.3
20260509181508 31 360 16.1 29.0 0.00 0.00 0.00 15 1006.6
20260509180004 31 257 17.7 37.0 0.00 0.00 0.00 15 1006.8
20260509174505 30 360 16.1 32.2 0.00 0.00 0.00 17 1006.9
20260509173105 30 259 14.5 33.8 0.00 0.00 0.00 17 1007.1
20260509171601 30 220 16.1 29.0 0.00 0.00 0.00 18 1007.0
20260509170057 29 248 12.9 24.1 0.00 0.00 0.00 19 1007.0
20260509164600 28 252 12.9 25.7 0.00 0.00 0.00 22 1007.4
20260509163056 28 198 14.5 29.0 0.00 0.00 0.00 23 1007.3
20260509161548 27 206 9.7 22.5 0.00 0.00 0.00 25 1007.4
20260509160044 27 200 9.7 20.9 0.00 0.00 0.00 27 1007.7
20260509154542 26 182 11.3 20.9 0.00 0.00 0.00 30 1007.6
20260509153036 25 360 9.7 20.9 0.00 0.00 0.00 31 1007.7
20260509151532 24 217 11.3 24.1 0.00 0.00 0.00 33 1007.9
20260509150032 23 199 11.3 19.3 0.00 0.00 0.00 35 1008.1
20260509144535 22 179 12.9 20.9 0.00 0.00 0.00 37 1008.2
20260509143023 21 198 9.7 19.3 0.00 0.00 0.00 40 1008.3
20260509141519 21 192 9.7 20.9 0.00 0.00 0.00 44 1008.2
20260509140016 20 218 8.0 19.3 0.00 0.00 0.00 47 1008.2
20260509134514 18 360 8.0 14.5 0.00 0.00 0.00 50 1008.3
20260509133013 17 360 6.4 14.5 0.00 0.00 0.00 53 1008.2
20260509131511 17 231 6.4 14.5 0.00 0.00 0.00 55 1007.9